PCSat - Orbit

View from above orbital plane
View from above orbital plane
View from above satellite
View from above satellite

Ground track
Ground track

The orbit data is extracted from the following two-line orbital elements,

1 26931U 01043C   13140.84353041  .00000148  00000-0  89392-4 0  3314
2 26931 067.0527 329.9968 0007212 282.5015 206.3137 14.29923288607510
Epoch (UTC): 20 May 2013 20:14:41
Eccentricity: 0.0007212
inclination: 67.0527°
perigee height: 787 km
apogee height: 797 km
right ascension of ascending node: 329.9968°
argument of perigee: 282.5015°
revolutions per day: 14.29923288
mean anomaly at epoch: 206.3137°
orbit number at epoch: 60751

The dashed part of the orbit path shows where the satellite is in the earth's shadow,  

Developed and maintained by Chris Peat, Heavens-Above GmbH. Please read the updated FAQ before sending e-mail. Imprint. DLR